Location: El Águila
(10.4167°N, 66.7167°W)
Time: 18:58:21
(UTC+00:00)

SWIFT - Pass Details

Date: 10 April 2023
Orbit: 527 x 541 km, 20.6° (Epoch: 30 May)

Event Time Altitude Azimuth Distance (km) Brightness Sun altitude
Rises 00:56:04 0° 299° (WNW) 2,638 6.8 -34.1°
Reaches altitude 10° 00:58:31 10° 310° (NW) 1,750 5.6 -34.7°
Enters shadow 00:58:51 12° 312° (NW) 1,643 5.4 -34.8°
